デニング-藤川彗星

72P/Denning-Fujikawa (1978)

English version
Home page
Updated on January 24, 2015

---------------------------------------------------------------------

・ プロフィール

符号 72P/1978 T2
再発見日 1978年10月9日
再発見光度 11等
再発見者 藤川繁久(香川県)

・ 軌道要素

Epoch 1978 Oct. 19.0 TT = JDT 2443800.5
T 1978 Oct. 2.13926 TT                                  MPC
q   0.7796931            (2000.0)            P               Q
n   0.10944612     Peri.  334.30821     +0.95873078     -0.26627543
a   4.3284837      Node    41.53840     +0.27982991     +0.82171187
e   0.8198692      Incl.    8.64393     +0.05030423     +0.50387201
P   9.01
From 26 observations 1881 Oct. 19-2014 June 18, mean residual 1".6.
     Nongravitational parameters A1 = -0.06, A2 = +0.0240.

・ 光度変化

        m1 = 18.5 + 5 logΔ + 50.0 log r

---------------------------------------------------------------------

軌道要素はM.P.E.C. 2014-M11に掲載されたものです。
光度グラフはComet for Windowsで作成したものです。

---------------------------------------------------------------------

Copyright(C) Seiichi Yoshida (comet@aerith.net). All rights reserved.